Location: Abrud-Sat-Ciuruleasa
(46.2500°N, 23.0333°E)
Time: 10:09:46
(UTC+00:00)

Daily predictions for brighter satellites

Satellite Brightness Start Highest point End
(mag) Time Altitude Azimuth Time Altitude Azimuth Time Altitude Azimuth
Cosmos 2084 3.7 15:09:27 10° NNW 15:13:39 51° NE 15:17:59 10° ESE
H-2A R/B 3.0 15:10:39 10° ESE 15:14:43 24° ENE 15:18:44 10° N
MOS 1 Rocket 4.4 15:12:42 10° N 15:17:34 49° WNW 15:22:08 10° SW
Meteor 2-19 Rocket 4.4 15:11:34 10° N 15:17:41 74° E 15:23:47 10° SSE
USA 267 3.3 15:11:59 10° NE 15:18:34 83° SE 15:25:07 10° SW
Cosmos 1697 Rocket 3.0 15:15:03 10° NNW 15:20:27 45° NE 15:25:49 10° SE
ATLAS 5 CENTAUR R/B 4.0 15:12:06 10° NW 15:21:59 28° N 15:25:44 10° ENE
Cosmos 2369 4.3 15:18:16 10° NNW 15:23:29 34° NE 15:28:39 10° ESE
USA 306 4.0 15:19:55 10° WNW 15:23:45 31° N 15:27:35 10° NE
ERBS 3.8 15:21:11 10° W 15:23:56 25° NNW 15:26:42 10° NNE
Cosmos 1980 Rocket 3.0 15:19:10 10° N 15:24:03 28° NE 15:28:53 10° ESE
Cosmos 1271 Rocket 4.3 15:21:52 10° SW 15:25:33 38° WNW 15:29:18 10° N
Cosmos 1763 Rocket 3.6 15:22:04 10° S 15:26:58 52° ESE 15:31:55 10° NNE
Meteor 1-25 Rocket 4.4 15:23:49 10° N 15:29:15 51° ENE 15:34:41 10° SSE
COSMO-SKYMED 1 4.2 15:28:26 10° NE 15:31:06 16° E 15:33:45 10° SE
USA 229 DEB 3.9 15:24:48 10° NW 15:32:07 72° NE 15:39:54 10° SE
USA 229 3.9 15:24:54 10° NW 15:32:13 72° NE 15:39:59 10° SE
Cosmos 841 Rocket 4.5 15:28:17 10° SSE 15:32:33 27° E 15:36:49 10° NE
Cosmos 1939 Rocket 2.9 15:28:49 10° SSE 15:32:53 62° ENE 15:36:56 10° N
SL-16 R/B 3.9 15:30:36 10° N 15:33:16 13° NE 15:35:32 11° ENE
ATLAS CENTAUR R/B 3.4 15:21:58 10° SW 15:33:16 64° SE 15:37:37 12° ENE
Cosmos 1937 Rocket 3.8 15:30:08 10° N 15:35:15 45° ENE 15:40:20 10° SE
Cosmos 2082 Rocket 3.2 15:33:31 10° SSE 15:38:11 27° ESE 15:42:35 11° NE
ATLAS 2AS CENTAUR R/B 4.4 15:33:21 10° WNW 15:39:24 24° NNW 15:45:14 10° NE
Cosmos 2026 Rocket 4.2 15:33:51 10° N 15:39:47 47° ENE 15:45:35 10° SSE
Cosmos 1812 4.3 15:37:19 10° SE 15:39:49 17° E 15:41:26 13° ENE
Cosmos 1633 Rocket 4.4 15:38:30 10° NNE 15:41:35 18° ENE 15:44:38 10° ESE
NOAA 6 4.0 15:36:31 10° SSE 15:41:38 72° ENE 15:46:46 10° N
USA 307 4.1 15:38:18 10° WNW 15:42:07 30° N 15:45:19 13° NE
Cosmos 990 Rocket 4.0 15:38:48 10° NNW 15:44:01 87° WSW 15:49:11 10° SSE
CZ-4B DEB 4.2 15:39:21 10° SSE 15:44:46 61° ENE 15:50:12 10° N
CORIOLIS 4.1 15:39:58 10° SSE 15:45:19 70° ENE 15:50:45 10° N
Cosmos 1408 Rocket 4.5 15:43:18 10° NNW 15:47:32 52° W 15:51:47 10° S
Cosmos 2278 4.4 15:42:53 10° N 15:47:56 31° NE 15:52:57 10° ESE
Cosmos 372 Rocket 4.4 15:44:51 10° N 15:49:45 39° ENE 15:54:39 10° SE
USA 234 3.3 15:45:41 10° SE 15:52:15 87° SW 15:58:49 10° NW
Okean O Rocket 2.5 15:48:54 10° ESE 15:52:37 27° ENE 15:56:22 10° N
Cosmos 1602 3.7 15:51:17 10° N 15:55:08 63° E 15:58:57 10° SSE
Cosmos 1743 Rocket 3.6 15:50:54 10° N 15:55:16 81° W 15:59:35 10° S
COSMOS 2406 3.3 15:49:46 10° S 15:55:24 59° ESE 16:00:59 10° NNE
NOSS 3-1 (A) 4.2 15:48:09 10° NW 15:55:42 84° SW 16:04:32 10° SSE
COSMOS 2455 3.3 15:50:23 10° S 15:56:02 44° ESE 16:00:45 15° NE
ATLAS CENTAUR R/B 3.9 15:53:45 10° WNW 15:56:11 14° NNW 15:58:41 10° N
USA 276 3.2 15:53:46 10° WNW 15:56:46 43° SSW 15:59:44 10° SE
Cosmos 1151 Rocket 4.0 15:55:11 10° SE 15:58:48 27° E 16:01:14 17° NE
Cosmos 1782 3.0 15:56:10 10° SSE 16:00:01 48° E 16:03:52 10° NNE
NOSS 2-2 (D) 4.4 15:57:15 10° NNW 16:02:16 57° NE 16:09:13 10° SE
Cosmos 1833 Rocket 2.6 15:56:40 10° SSW 16:02:17 85° ESE 16:07:56 10° NNE
ARGOS 3.6 15:57:19 10° SE 16:02:17 38° ENE 16:07:15 10° N
NOSS 2-2 (E) 4.4 15:57:38 10° NW 16:02:51 68° NE 16:10:13 10° SE
USA 308 4.1 16:00:59 10° WNW 16:04:42 28° N 16:06:49 19° NE
Cosmos 1666 Rocket 4.0 16:02:29 10° N 16:06:39 37° ENE 16:10:45 10° SE
Cosmos 858 Rocket 4.4 16:01:52 10° NNW 16:07:11 75° ENE 16:12:27 10° SSE
Cosmos 1809 Rocket 4.4 16:01:57 10° N 16:08:06 82° E 16:14:10 10° S
Cosmos 1340 Rocket 4.3 16:07:07 10° NNW 16:10:57 40° W 16:14:45 10° SSW
PAYLOAD B 4.2 16:05:59 10° SSE 16:11:34 79° ENE 16:17:12 10° NNW
Cosmos 1328 Rocket 4.5 16:09:09 10° SSE 16:12:56 28° E 16:13:45 26° ENE
Meteor 2-21 Rocket 4.4 16:08:10 10° N 16:14:13 59° ENE 16:20:10 10° SSE
CZ-2D R/B 3.1 16:12:09 10° SSE 16:15:59 88° E 16:19:50 10° NNW
ISS -3.6 16:12:49 10° WNW 16:16:11 54° NNE 16:17:10 37° ENE
CZ-4B R/B 3.1 16:13:27 10° SSE 16:18:48 64° ENE 16:24:06 10° N
SKYMED 2 3.8 16:16:31 18° NNE 16:19:31 47° E 16:23:42 10° S
Lacrosse 5 rocket 2.4 16:17:08 10° NW 16:20:27 26° NNE 16:20:54 25° NE
CZ-2C R/B 2.6 16:18:11 10° NNE 16:23:17 54° E 16:28:20 10° S
GEOS 3 Rocket 4.1 16:21:01 25° E 16:23:29 40° NE 16:28:17 10° NNW
Cosmos 540 Rocket 3.4 16:18:52 10° SSW 16:23:58 86° WNW 16:28:33 13° NNE
Landsat 5 3.9 16:23:53 34° ENE 16:24:30 36° E 16:28:13 10° SSE
SL-08 RB Rocket 4.1 16:21:06 10° SE 16:25:24 39° ENE 16:29:42 10° N
CZ-4C R/B 3.0 16:19:15 10° NW 16:26:17 61° NE 16:34:32 10° SE
Cosmos 1818 4.2 16:21:43 10° NNW 16:26:48 36° NE 16:28:21 30° ENE
Cosmos 1814 Rocket 4.2 16:22:22 10° S 16:27:23 49° ESE 16:29:53 27° NE
SMAP 4.4 16:23:34 10° SSW 16:27:56 41° W 16:32:22 10° NNW
Meteor 1-26 Rocket 4.3 16:22:47 10° S 16:28:45 90° E 16:34:50 10° N
Cosmos 1500 3.2 16:26:01 10° NNW 16:29:46 78° W 16:33:29 10° S
MOS 1-B 4.4 16:24:52 10° SSE 16:30:39 81° WSW 16:36:28 10° NNW
USA 305 4.0 16:28:28 10° WNW 16:32:11 29° N 16:32:56 27° NNE
Cosmos 44 Rocket 3.9 16:28:04 10° NNW 16:32:36 34° NE 16:33:02 34° NE
Sich 1 3.5 16:32:09 10° NNW 16:36:23 60° W 16:40:37 10° S
Feng Yun 1-1 Rocket 4.5 16:31:14 10° SE 16:36:56 51° ENE 16:42:36 10° N
Cosmos 2360 Rocket 3.9 16:38:07 10° N 16:40:27 17° NNE 16:40:27 17° NNE
deb Chang Zheng 4 3.8 16:46:35 10° S 16:50:53 70° WSW 16:55:12 10° NNW
Cosmos 2208 Rocket 4.1 16:46:49 10° S 16:52:04 56° ESE 16:53:12 47° ENE
Cosmos 2142 Rocket 4.4 16:46:03 10° S 16:52:12 87° W 16:58:28 10° N
H-2A R/B 2.9 16:48:50 10° S 16:53:52 50° W 16:58:48 10° NNW
Meteor 1-14 Rocket 4.5 16:51:57 10° NNW 16:57:46 75° W 17:03:39 10° S
Cosmos 1666 3.0 16:55:45 10° NNW 16:59:26 63° W 17:03:06 10° S
USA 267 3.9 16:58:13 28° NE 17:01:17 45° NNW 17:07:26 10° W
Cosmos 2322 Rocket 3.2 16:56:26 10° NNW 17:00:05 29° NNE 17:00:05 29° NNE
Cosmos 2279 Rocket 4.0 16:55:46 10° SSW 17:01:59 78° W 17:08:13 10° N
USA 306 4.2 17:00:38 10° NW 17:03:44 29° N 17:03:44 29° N
Cosmos 2266 Rocket 3.9 17:00:17 10° N 17:06:39 67° E 17:13:01 10° SSE
COSMO-SKYMED 1 3.2 17:05:08 24° N 17:07:36 55° WNW 17:11:50 10° SSW
Cosmos 1980 Rocket 2.8 17:02:51 10° NW 17:08:23 55° WSW 17:13:50 10° S
Cosmos 841 Rocket 4.5 17:09:17 10° SW 17:14:11 43° WNW 17:17:15 21° N
Cosmos 1812 4.1 17:11:38 10° SW 17:15:14 38° WNW 17:16:31 29° NNW
Spot 2 4.4 17:12:59 31° SSE 17:15:32 86° ENE 17:20:42 10° NNW
Meteor 2-15 Rocket 4.3 17:12:11 10° S 17:18:16 70° E 17:19:10 61° NE
SL-16 R/B 2.6 17:13:07 10° NNW 17:17:26 46° NNE 17:17:26 46° NNE
Cosmos 1125 Rocket 4.2 17:13:38 10° NNW 17:17:07 40° N 17:17:07 40° N
Cosmos 1633 Rocket 4.0 17:15:26 10° NNW 17:19:37 46° W 17:23:48 10° SSW
Cosmos 2082 Rocket 2.9 17:16:24 10° SW 17:21:56 52° WNW 17:24:27 31° N
Cosmos 2333 Rocket 4.3 17:23:07 10° N 17:24:11 14° N 17:24:11 14° N
Okean O Rocket 3.2 17:24:46 10° SSW 17:28:50 35° W 17:32:57 10° NNW
ATLAS 2AS CENTAUR R/B 4.3 17:27:37 10° NW 17:33:09 21° N 17:33:28 21° NNE
Cosmos 1655 Rocket 4.2 17:31:23 10° NNW 17:37:46 71° W 17:44:05 10° S
COSMOS 2455 3.9 17:36:23 10° WSW 17:42:02 40° NW 17:43:55 32° N
ISS -0.3 17:49:51 10° WNW 17:50:10 12° W 17:50:10 12° W
Lacrosse 5 rocket 4.1 17:55:54 10° NW 17:56:30 14° NW 17:56:30 14° NW
ATLAS CENTAUR R/B 4.3 17:59:25 10° W 18:03:22 22° NW 18:03:22 22° NW
CZ-4C R/B 4.0 18:07:58 10° NW 18:14:54 42° WSW 18:20:11 20° S
Cosmos 2360 Rocket 4.5 18:21:09 10° NNW 18:22:13 16° NNW 18:22:13 16° NNW
Cosmos 2322 Rocket 4.5 18:40:23 10° NW 18:41:55 18° NW 18:41:55 18° NW
